Regional Weather Roundup
Issued by NWS

Home | Current Version | Previous Version | Graphics & Text | Print | Product List | Glossary Off
Versions: 1 2 3 4 5 6 7 8 9 10 11 12 13 14 15 16 17 18 19 20 21 22 23 24 25 26 27 28 29 30 31 32 33 34 35 36 37 38 39 40 41 42 43 44 45 46 47 48 49 50

056
ASUS43 KDTX 170401
RWRMI
MICHIGAN HOURLY REGIONAL WEATHER ROUNDUP
NATIONAL WEATHER SERVICE DETROIT/PONTIAC MI
1200 AM EDT TUE OCT 17 2017

NOTE: "FAIR" INDICATES FEW OR NO CLOUDS BELOW 12,000 FEET WITH NO
SIGNIFICANT WEATHER AND/OR OBSTRUCTION TO VISIBILITY.

MIZ047>049-052>055-059>063-066>070-074>076-081>083-170500-
SOUTHEAST LOWER MICHIGAN

CITY           SKY/WX    TMP DP  RH WIND       PRES   REMARKS
ADRIAN         CLEAR     43  39  86 CALM      30.26F
ALMA           CLEAR     40  37  91 S3        30.21S
ANN ARBOR      CLEAR     36  36 100 SW3       30.24F
BAD AXE        CLEAR     44  37  75 SW7       30.20F
CARO           CLEAR     39  36  87 CALM      30.21S
DETROIT CITY   CLEAR     46  40  79 S3        30.25F
DETROIT        CLEAR     45  39  79 CALM      30.26S
FLINT          CLEAR     44  38  79 S5        30.23S
GROSSE ILE     CLEAR     50  40  69 SW7       30.25S
HILLSDALE      CLEAR     41  37  87 S5        30.23F
HOWELL         CLEAR     44  40  86 SW3       30.23S

CITY           SKY/WX    TMP DP  RH WIND       PRES   REMARKS
JACKSON        CLEAR     44  37  76 CALM      30.23S
LAMBERTVILLE   CLEAR     43  40  88 S3        30.26S
LANSING        CLEAR     43  37  79 S3        30.23R
LAPEER         FAIR      41  38  89 CALM      30.23S
MASON          CLEAR     45  39  79 CALM      30.23S
MONROE         CLEAR     42  40  90 CALM      30.25F
MT. CLEMENS    CLEAR     45  40  82 SW7       30.22F
PONTIAC        CLEAR     41  39  93 CALM      30.22F
PORT HOPE        N/A     47  36  65 S3        30.18S
PORT HURON     CLEAR     39  36  87 CALM      30.24S
TRI CITIES     CLEAR     44  41  89 S7        30.20F
MIDLAND        FAIR      39  39  99 CALM      30.19F
TROY           CLEAR     45  38  75 SW3       30.25F
SAGINAW HB     CLEAR     43  37  81 S6        30.21S
$$
MIZ043>046-050>051-056>058-064>065-071>073-077>080-170500-
SOUTHWEST LOWER MICHIGAN

CITY           SKY/WX    TMP DP  RH WIND       PRES   REMARKS
BATTLE CREEK   CLEAR     45  39  79 S7        30.22F
BENTON HARBOR  CLEAR     47  38  71 CALM      30.22S
BIG RAPIDS     CLEAR     40  37  89 CALM      30.17S
COLDWATER      CLEAR     43  41  93 S3        30.24S
FREMONT        FAIR      44  41  91 CALM      30.18S
HOLLAND        CLEAR     46  40  79 S7        30.20F
GRAND RAPIDS   CLEAR     46  40  79 S10       30.20F
IONIA          FAIR      42  37  83 S5        30.20F
LUDINGTON      CLEAR     55  41  58 SW12      30.13F
MARSHALL       CLEAR     44  38  80 S3        30.23S
MOUNT PLEASANT CLEAR     48  38  68 SW6       30.18F
MUSKEGON       CLEAR     55  40  56 SW9       30.18F
SOUTH HAVEN    CLEAR     45  41  87 CALM      30.21F
$$
MIZ016>042-170500-
NORTHERN LOWER MICHIGAN

CITY           SKY/WX    TMP DP  RH WIND       PRES   REMARKS
ALPENA         CLEAR     39  38  96 S5        30.15S
BEAVER ISLAND  CLEAR     55  43  64 SW16G24   30.05F
BELLAIRE       CLEAR     48  39  71 SW5       30.12S
CADILLAC       CLEAR     44  38  78 S6        30.13F
CHARLEVOIX     CLEAR     48  41  75 S7        30.12S
FRANKFORT      CLEAR     50  43  78 CALM      30.10F
GAYLORD        CLEAR     44  35  70 SW14      30.11F
GRAYLING       CLEAR     45  36  70 SW6       30.13F
HARBOR SPRINGS CLEAR     48  39  70 SW9       30.09S
HOUGHTON LAKE  CLEAR     45  38  76 S7        30.15F
MANISTEE       CLEAR     43  39  86 CALM      30.13F
OSCODA         CLEAR     40  37  89 SW6       30.16S
PELLSTON       CLEAR     47  39  74 S8        30.09F
ROGERS CITY    CLEAR     42  37  82 S8        30.13S
TRAVERSE CITY  CLEAR     48  39  71 SE5       30.10F
$$
MIZ007>008-015-170500-
EASTERN UPPER MICHIGAN

CITY           SKY/WX    TMP DP  RH WIND       PRES   REMARKS
KINROSS        CLOUDY    47  43  86 S8        30.05F
MACKINAC ISLAN CLEAR     49  41  73 S10       30.07F
NEWBERRY       CLEAR     46  42  88 S9        30.01F
S. S. MARIE    CLEAR     44  40  85 S6        30.04F
MUNISING         N/A     50  39  66 S8        29.97F
$$
MIZ004>006-011>014-085-170500-
CENTRAL UPPER MICHIGAN

CITY           SKY/WX    TMP DP  RH WIND       PRES   REMARKS
MANISTIQUE     CLEAR     53  36  52 SW8G23    30.02F
ESCANABA       CLEAR     50  38  63 SW12      30.02F
MENOMINEE      CLEAR     51  38  60 SW8       30.06F
SAWYER-GWINN   MOCLDY    43  37  78 SW9       29.98S
$$
MIZ001>003-009>011-084-170500-
WESTERN UPPER MICHIGAN

CITY           SKY/WX    TMP DP  RH WIND       PRES   REMARKS
IRON MOUNTAIN  CLEAR     44  34  67 S5        30.00F
HOUGHTON       PTCLDY    50  34  54 SW10      29.88F
COPPER HARBOR    N/A     52  35  52 W12G22    29.87F
IRONWOOD       CLEAR     53  35  50 SW12      29.91F
$$

ABBREVIATIONS USED IN REMARKS
   TC - TEMPERATURE IN CELSIUS
  WCI - WIND CHILL INDEX
   HX - HEAT INDEX
  VSB - VISIBILITY





USA.gov is the U.S. government's official web portal to all federal, state and local government web resources and services.